BREEZE-M DEB, 37201

Orbit data source: Space-Track

BREEZE-M DEB, 37201 is space debris in HEO originally from a launch on Fri, 14 Mar 2008 UTC launched from the Tyuratam Missile And Space Complex (TTMTR). Debris objects in space refer to the collection of defunct objects orbiting the Earth. Examples of debris include non-operational satellites, rocket bodies, and fragments generated from explosions, collisions, or faulty payload assembly.

Loading next visibility...
Identifier
37201, 2008-011F
Orbit
HEO
Country
Flag of CISCIS
Related business
Manufacturer
Unknown
Mission
Spacecraft
Bus & Motor
Unknown
Mass
Unknown
Launch date (UTC)
2008-03-14 (18 years ago)
Launch vehicle
Unknown
Launch site
Tyuratam Missile And Space Complex (TTMTR)
Object type
Payload
Rocket body
Debris
Shape & HBR
Unknown shape, 1.3 m
Radar Cross Section
Large (>1 m²)

Expand to show TLE details & history
Last TLE update: 3 days ago

TLE from 3 days ago
0 BREEZE-M DEB
1 37201U 08011F   26171.40761204  .00001440  00000-0  72280-1 0  9993
2 37201  49.1832  48.8095 6356637 190.1283 357.3510  3.06047047175307
Epoch: 2026-06-20T09:46Z
TLE epoch observation values (Epoch: 2026-06-20T09:46:57.680Z)
Latitude
4.29843°
Longitude
169.75942°
Altitude
1,031.071 km
Speed
9.366 km/s
True Right ascension
15h 00m 29s
True Declination
4° 16' 26"
Sunlit
Object was in full shadow at epoch
Visualization orbit readout
Latitude
Unknown
Longitude
Unknown
Altitude
Unknown
Speed
Unknown
Apparent Right ascension
Unknown
Apparent Declination
Unknown
Sunlit
N/A
Visualization observer readout
Local Sidereal Time
09:20:26
Azimuth
Unknown
Elevation
Unknown
Doppler factor
Unknown
Orbital elements
Apogee altitude
26,400.074 km
Perigee altitude
923.053 km
Semi-major axis
20,039.701 km
Eccentricity
0.63566
Inclination
49.1832°
RAAN
48.8095°
Arg. of periapsis
190.1283°
True anomaly
344.7361°
Mean anomaly
357.351°
Eccentric anomaly
352.7628°
Mean motion
0.76508 °/min
Orbital period
470.54 mins
BSTAR
0.07228
Loading maneuver chart data...
Computing Atmospheric mass density...
Loading historical data...
Loading historical data...
Loading historical data...
Loading historical data...
Loading historical data...
Loading historical data...
Loading historical data...

Documentation

Showing up to 5 results
|